Weather History for Northeast Philadelphia, PA

Change the Weather History Date:

Sunday, February 17, 2013

  Actual Average Record
Temperature  
Mean Temperature 26 °F -  
Max Temperature 32 °F 42 °F 66 °F (2011)
Min Temperature 21 °F 26 °F 15 °F (2003)
Degree Days  
Heating Degree Days 38    
Moisture  
Dew Point 6 °F    
Average Humidity 40    
Maximum Humidity 55    
Minimum Humidity 34    
Precipitation  
Precipitation 0.00 in - - ()
Sea Level Pressure  
Sea Level Pressure 29.87 in    
Wind  
Wind Speed 16 mph (NW)    
Max Wind Speed 25 mph    
Max Gust Speed 44 mph    
Visibility 10 miles    
Events Snow    
Averages and records for this station are not official NWS values.
T = Trace of Precipitation, MM = Missing Value Source: NWS Daily Summary

Daily Weather History Graph

Daily Weather History Graph

Search for Another Location

Airport:

Trip Planner

Search our weather history database for the weather conditions in past years. The results will help you decide how hot, cold, wet, or windy it might be!

Date:

Astronomy

Feb. 17, 2013 Rise Set
Actual Time 6:50 AM EST 5:38 PM EST
Civil Twilight 6:22 AM EST 6:06 PM EST
Nautical Twilight 5:50 AM EST 6:37 PM EST
Astronomical Twilight 5:19 AM EST 7:09 PM EST
Moon 10:41 AM EST 12:32 AM EST
Length of Visible Light 11h 43m
Length of Day
10h 48m
Waxing Crescent, 49% of the Moon is Illuminated
Feb 17
Waxing Crescent
Feb 17
First Quarter
Feb 25
Full
Mar 4
Last Quarter
Mar 11
New

Hourly Weather History & Observations

Time (EST) Temp. Windchill Dew Point Humidity Pressure Visibility Wind Dir Wind Speed Gust Speed Precip Events Conditions
12:54 AM 30.0 °F 21.1 °F 10.9 °F 45% 29.77 in 10.0 mi NNW 10.4 mph - N/A   Overcast
1:54 AM 28.9 °F 17.3 °F 10.0 °F 45% 29.77 in 10.0 mi NNW 16.1 mph - N/A   Overcast
2:54 AM 28.9 °F 17.7 °F 8.1 °F 41% 29.76 in 10.0 mi NNW 15.0 mph 23.0 mph N/A   Overcast
3:54 AM 28.0 °F 15.3 °F 8.1 °F 43% 29.75 in 10.0 mi NNW 18.4 mph 23.0 mph N/A   Mostly Cloudy
4:54 AM 28.0 °F 16.5 °F 5.0 °F 38% 29.76 in 10.0 mi NW 15.0 mph 24.2 mph N/A   Clear
5:54 AM 27.0 °F 15.6 °F 5.0 °F 39% 29.77 in 10.0 mi NW 13.8 mph - N/A   Clear
6:54 AM 26.1 °F 13.6 °F 5.0 °F 41% 29.78 in 10.0 mi NW 16.1 mph 21.9 mph N/A   Clear
7:54 AM 26.1 °F 15.0 °F 5.0 °F 41% 29.80 in 10.0 mi NW 12.7 mph 20.7 mph N/A   Clear
8:54 AM 28.0 °F 17.0 °F 6.1 °F 39% 29.81 in 10.0 mi NW 13.8 mph 23.0 mph N/A   Clear
9:54 AM 30.0 °F 18.7 °F 7.0 °F 38% 29.81 in 10.0 mi NNW 16.1 mph 26.5 mph N/A   Clear
10:54 AM 30.9 °F 18.7 °F 7.0 °F 37% 29.82 in 10.0 mi NNW 19.6 mph 32.2 mph N/A   Partly Cloudy
11:54 AM 30.9 °F 18.4 °F 8.1 °F 38% 29.82 in 10.0 mi West 20.7 mph 29.9 mph N/A   Mostly Cloudy
12:54 PM 30.0 °F 17.9 °F 6.1 °F 36% 29.83 in 10.0 mi NW 18.4 mph 32.2 mph N/A   Mostly Cloudy
1:54 PM 32.0 °F 20.1 °F 6.1 °F 34% 29.83 in 10.0 mi NW 19.6 mph 34.5 mph N/A   Overcast
2:54 PM 28.9 °F 16.1 °F 6.1 °F 38% 29.85 in 10.0 mi NW 19.6 mph 29.9 mph N/A   Mostly Cloudy
3:54 PM 28.0 °F 15.3 °F 9.0 °F 45% 29.87 in 10.0 mi NW 18.4 mph 29.9 mph N/A   Overcast
4:30 PM 26.6 °F 14.7 °F 12.2 °F 55% 29.87 in 2.0 mi NW 15.0 mph 43.7 mph 0.00 in Snow Light Snow
4:39 PM 26.6 °F 13.1 °F 10.4 °F 51% 29.87 in 9.0 mi WNW 19.6 mph 27.6 mph 0.00 in   Mostly Cloudy
4:54 PM 27.0 °F 14.7 °F 10.9 °F 51% 29.89 in 10.0 mi WNW 16.1 mph 33.4 mph 0.00 in   Scattered Clouds
5:54 PM 27.0 °F 12.8 °F 3.9 °F 37% 29.92 in 10.0 mi NW 21.9 mph 36.8 mph N/A   Partly Cloudy
6:54 PM 26.1 °F 12.3 °F 3.0 °F 37% 29.96 in 10.0 mi NW 19.6 mph 27.6 mph N/A   Scattered Clouds
7:54 PM 25.0 °F 12.2 °F -0.0 °F 34% 29.99 in 10.0 mi NW 16.1 mph 35.7 mph N/A   Partly Cloudy
8:54 PM 24.1 °F 10.6 °F -0.9 °F 34% 30.02 in 10.0 mi WNW 17.3 mph 35.7 mph N/A   Partly Cloudy
9:54 PM 23.0 °F 9.6 °F -0.0 °F 37% 30.06 in 10.0 mi NW 16.1 mph 29.9 mph N/A   Partly Cloudy
10:54 PM 21.9 °F 6.5 °F 1.0 °F 40% 30.08 in 10.0 mi WNW 20.7 mph 27.6 mph N/A   Mostly Cloudy
11:54 PM 21.0 °F 3.9 °F -0.9 °F 38% 30.11 in 10.0 mi NW 25.3 mph 41.4 mph N/A   Clear